Weather in Varvarino

Russia / Tula Oblast     53°39′57″N   36°32′56″E
temp.,
°C
wind,
m/s
gust,
m/s
humid.,
%
clouds,
%
prec.,
mm/h
press.,
hPa
HPBL,
m
13 june, sun
sun1300:00+14ssw228880 0.0 100810
03:00+12ssw22931 0.0 100714
06:00+14ssw23930 0.0 100788
09:00+18sw33810 0.1 1007478
12:00+21ssw446656 0.0 10071320
15:00+22ssw4561100 0.1 10071702
18:00+21ssw3577100 0.4 1007809
21:00+17s358996 1.3 100865
14 june, mon
mon1400:00+15s359496 0.1 100975
03:00+14ssw339497 0.1 101143
06:00+15s239361 0.0 1012103
09:00+19ssw237986 0.0 1014464
12:00+22sw226868 0.0 1015928
15:00+24wsw116111 0.1 10151338
18:00+23s116723 0.8 1015351
21:00+18n11811 1.8 101511
15 june, tue
tue1500:00+17se00853 0.0 101511
03:00+16n11885 0.0 101511
06:00+17n1188100 0.0 101535
09:00+21n117873 0.0 1015368
12:00+24n226789 0.8 1013993
15:00+24nnw126367 1.9 10121036
18:00+24nne117178 1.5 1011785
21:00+19nw2284100 3.9 101111
16 june, wed
wed1600:00+17nw2291100 0.8 101024
03:00+15nnw339398 1.0 101047
06:00+16nnw379551 0.0 1011202
09:00+20n3582100 0.0 1011499
12:00+22n567565 3.3 1012797
15:00+23n567050 4.9 10131194
18:00+21n59775 1.1 1014670
21:00+16nne410870 1.1 1016257
17 june, thu
thu1700:00+13nne412880 0.0 1018266
03:00+11nne410890 0.0 1019188
06:00+12nne412820 0.0 1021304
09:00+17ne59710 0.0 1021475
12:00+20ne68570 0.0 10221345
15:00+20ne68590 0.0 10221443
18:00+19ne58700 0.0 1023931
21:00+15nne47831 0.0 1023100